This demonstration page uses our WeatherBlox Daily Observations layout. Learn more.

Left ArrowRight Arrow

39.51506, -84.39828

Hourly Observations for May 28, 2017

Temp ( °F °C ) Dew Point ( °F °C ) Humidity (%) Winds ( mph kmh ) Pressure ( in mb ) Visibility ( mi km ) Precip ( " mm )
12:15 am 00:15 Partly Cloudy 70 20.9 63 17 78 78 N N/A 29.83 1010 10 16 N/A
12:35 am 00:35 Partly Cloudy 69 20.8 63 17 79 79 N N/A 29.83 1010 10 16 N/A
12:55 am 00:55 Mostly Cloudy 69 20.8 64 17.5 82 82 N N/A 29.83 1010 10 16 N/A
1:15 am 01:15 Mostly Cloudy 69 20.8 64 17.8 83 83 SW 7 11 29.83 1010 10 16 N/A
1:35 am 01:35 Partly Cloudy 72 22.2 65 18.2 78 78 SW 6 9 29.80 1009 10 16 N/A
1:55 am 01:55 Clear 69 20.8 63 17.1 79 79 SSW 6 9 29.80 1009 10 16 N/A
2:15 am 02:15 Clear 69 20.8 62 16.7 77 77 SW 7 11 29.80 1009 10 16 N/A
2:35 am 02:35 Clear 69 20.8 63 17.2 80 80 SW 6 9 29.80 1009 10 16 N/A
2:55 am 02:55 Clear 69 20.8 63 17.4 81 81 SW 5 7 29.80 1009 10 16 N/A
3:15 am 03:15 Clear 68 20.2 63 17 82 82 N N/A 29.80 1009 10 16 N/A
3:35 am 03:35 Clear 69 20.7 64 17.5 82 82 SSW 3 6 29.80 1009 10 16 N/A
3:55 am 03:55 Clear 67 19.6 61 16.3 81 81 N N/A 29.80 1009 10 16 N/A
4:15 am 04:15 Clear 69 20.8 63 17.1 79 79 N N/A 29.77 1008 10 16 N/A
4:35 am 04:35 Clear 67 19.7 61 16 79 79 WSW 3 6 29.77 1008 10 16 N/A
4:55 am 04:55 Clear 64 18 59 15.2 84 84 SSW 3 6 29.77 1008 10 16 N/A
5:15 am 05:15 Clear 64 18 59 15.2 84 84 SSW 3 6 29.77 1008 10 16 N/A
5:35 am 05:35 Partly Cloudy 67 19.3 61 16 81 81 SW 5 7 29.77 1008 10 16 N/A
5:55 am 05:55 Cloudy 67 19.5 62 16.4 82 82 S 6 9 29.80 1009 10 16 N/A
6:15 am 06:15 Cloudy 69 20.8 63 17.1 79 79 SSW 6 9 29.77 1008 10 16 N/A
6:35 am 06:35 Cloudy 69 20.8 63 17.2 80 80 S 8 13 29.77 1008 10 16 N/A
6:55 am 06:55 Mostly Cloudy 69 20.8 63 17.2 80 80 SSW 8 13 29.77 1008 10 16 N/A
7:15 am 07:15 Partly Cloudy 67 19.6 61 16 80 80 S 7 11 29.77 1008 10 16 N/A
7:35 am 07:35 Partly Cloudy 69 20.8 63 17.1 79 79 SSW 6 9 29.77 1008 10 16 N/A
7:55 am 07:55 Partly Cloudy 69 20.8 63 17 79 79 S 5 7 29.77 1008 10 16 N/A
8:15 am 08:15 Mostly Cloudy 69 20.8 62 16.8 78 78 SSW 8 13 29.77 1008 10 16 N/A
8:35 am 08:35 Partly Cloudy 69 20.8 62 16.6 77 77 S 7 11 29.77 1008 10 16 N/A
8:55 am 08:55 Partly Cloudy 69 20.8 62 16.6 77 77 SSW 9 15 29.80 1009 10 16 N/A
9:15 am 09:15 Partly Cloudy 69 20.8 61 16.3 76 76 SW 7 11 29.80 1009 10 16 N/A
9:35 am 09:35 Partly Cloudy 69 20.8 61 16.2 75 75 SW 13 20 29.80 1009 10 16 N/A
9:55 am 09:55 Mostly Cloudy 69 20.8 61 16.2 75 75 SSW 9 15 29.80 1009 10 16 N/A
10:15 am 10:15 Partly Cloudy 69 20.8 60 15.7 73 73 SSW 8 13 29.80 1009 10 16 N/A
10:35 am 10:35 Sunny 74 23.6 64 17.9 70 70 S 9 15 29.80 1009 10 16 N/A
10:55 am 10:55 Partly Cloudy 74 23.6 64 17.6 69 69 S 9 15 29.77 1008 10 16 N/A
11:15 am 11:15 Partly Cloudy 74 23.6 63 17.4 68 68 S 9 15 29.77 1008 10 16 N/A
11:35 am 11:35 Sunny 74 23.6 63 17.2 67 67 SSW 12 19 29.80 1009 10 16 N/A
11:55 am 11:55 Sunny 74 23.6 63 17.1 67 67 SW 13 20 29.80 1009 10 16 N/A
12:15 pm 12:15 Sunny 74 23.6 62 16.9 66 66 SW 10 17 29.77 1008 10 16 N/A
12:35 pm 12:35 Partly Cloudy 74 23.6 61 16.2 63 63 SW 14 22 29.80 1009 10 16 N/A
12:55 pm 12:55 Partly Cloudy 75 24.1 62 16.8 64 64 SSW 15 24 29.80 1009 10 16 N/A
1:15 pm 13:15 Partly Cloudy 76 24.7 62 16.7 61 61 SSW 15 24 29.80 1009 10 16 N/A
1:35 pm 13:35 Mostly Cloudy 75 23.9 61 16.1 62 62 SSW 14 22 29.77 1008 10 16 N/A
1:55 pm 13:55 Mostly Cloudy 75 23.7 61 16 62 62 SW 12 19 29.77 1008 10 16 N/A
2:15 pm 14:15 Mostly Cloudy 74 23.6 61 16.3 64 64 SSW 12 19 29.80 1009 10 16 N/A
2:35 pm 14:35 Cloudy 75 23.7 60 15.7 61 61 SW 10 17 29.80 1009 10 16 N/A
2:55 pm 14:55 Cloudy 76 24.3 61 16 60 60 SW 13 20 29.80 1009 10 16 N/A
3:15 pm 15:15 Cloudy 74 23.6 60 15.4 60 60 SW 12 19 29.80 1009 10 16 N/A
3:35 pm 15:35 Cloudy 74 23.6 60 15.3 60 60 SW 15 24 29.80 1009 10 16 N/A
3:55 pm 15:55 Cloudy 74 23.6 58 14.6 57 57 SW 12 19 29.80 1009 10 16 N/A
4:15 pm 16:15 Cloudy 74 23.6 59 14.8 58 58 SW 13 20 29.80 1009 10 16 N/A
4:35 pm 16:35 Cloudy 74 23.6 59 15.2 59 59 SSW 14 22 29.80 1009 10 16 N/A
4:55 pm 16:55 Cloudy 74 23.6 60 15.3 60 60 SSW 10 17 29.77 1008 10 16 N/A
5:15 pm 17:15 Cloudy 74 23.6 58 14.7 58 58 SSW 15 24 29.80 1009 10 16 N/A
5:35 pm 17:35 Cloudy 74 23.6 60 15.5 61 61 SSW 12 19 29.80 1009 10 16 N/A
5:55 pm 17:55 Cloudy 74 23.6 60 15.4 60 60 SW 10 17 29.80 1009 10 16 N/A
6:15 pm 18:15 Cloudy 74 23.6 60 15.5 61 61 SSW 13 20 29.80 1009 10 16 N/A
6:35 pm 18:35 Mostly Cloudy 74 23.6 60 15.5 61 61 SSW 15 24 29.77 1008 10 16 N/A
6:55 pm 18:55 Mostly Cloudy 74 23.6 61 15.9 62 62 SSW 12 19 29.77 1008 10 16 N/A
7:15 pm 19:15 Cloudy 74 23.6 60 15.6 61 61 SW 14 22 29.77 1008 10 16 N/A
7:35 pm 19:35 Mostly Cloudy 74 23.6 61 16.1 63 63 SSW 12 19 29.77 1008 10 16 N/A
7:55 pm 19:55 Partly Cloudy 74 23.6 62 16.6 65 65 SW 10 17 29.80 1009 10 16 N/A
8:15 pm 20:15 Partly Cloudy 72 22.3 61 16 68 68 SSW 8 13 29.80 1009 10 16 N/A
8:35 pm 20:35 Mostly Cloudy 72 22.4 61 16.3 69 69 SSW 9 15 29.80 1009 10 16 N/A
8:55 pm 20:55 Cloudy with Light Rain 73 22.6 62 16.7 69 69 WSW 7 11 29.83 1010 10 16 N/A
9:15 pm 21:15 Cloudy with Light Rain 69 20.8 59 14.8 69 69 N N/A 29.80 1009 10 16 N/A
9:35 pm 21:35 Mostly Cloudy with Drizzle 69 20.8 62 16.5 77 77 N N/A 29.80 1009 10 16 N/A
9:55 pm 21:55 Mostly Cloudy 68 19.8 61 16.1 79 79 N N/A 29.83 1010 10 16 N/A
10:15 pm 22:15 Partly Cloudy 68 20 61 16.3 79 79 WSW 7 11 29.83 1010 10 16 N/A
10:35 pm 22:35 Mostly Cloudy with Drizzle 69 20.8 62 16.5 77 77 WSW 12 19 29.83 1010 10 16 N/A
10:55 pm 22:55 Cloudy 69 20.8 61 16.1 75 75 SW 6 9 29.83 1010 10 16 N/A
11:15 pm 23:15 Cloudy with Light Rain 67 19.5 60 15.6 78 78 WSW 9 15 29.83 1010 10 16 N/A
11:35 pm 23:35 Partly Cloudy 67 19.5 60 15.5 78 78 SW 7 11 29.83 1010 10 16 N/A
11:55 pm 23:55 Clear 64 18 58 14.6 81 81 SW 6 9 29.83 1010 10 16 N/A

Powered by AerisWeather